Location: Eferding
(48.3167°N, 14.0167°E)
Time: 04:40:02
(UTC+00:00)

Cosmos 2227 Rocket - Pass Details

Date: 12 November 2019
Orbit: 838 x 846 km, 71.0° (Epoch: 13 December)

Event Time Altitude Azimuth Distance (km) Brightness Sun altitude
Rises 15:54:49 0° 336° (NNW) 3,417 5.4 -4.7°
Reaches altitude 10° 15:57:39 10° 348° (NNW) 2,478 4.6 -5.1°
Maximum altitude 16:02:29 28° 46° (NE) 1,550 3.1 -5.9°
Drops below altitude 10° 16:07:17 10° 105° (ESE) 2,464 4.1 -6.6°
Sets 16:10:05 0° 117° (ESE) 3,395 4.9 -7.1°
